sat.trackr.live / text

‹ back to catalog

SITRO-AIS 8 (ANOKHIN)

NORAD 57193 · 2023-091AD

PAYLOAD ACTIVE UNKNOWN

§ Identity

Operator
Country
CIS
Launch date
2023-06-27
Launch site
VOSTO
Launch vehicle
Mass (kg)
RCS (m²)

Purposes: tech_demo

External: N2YO · Heavens-Above · Gunter

§ Orbital elements

Epoch: 2026-09-19T21:52:40.789344Z

Period
93.85 min
Inclination
97.4961°
Eccentricity
0.0011030
Mean motion
15.34399346 rev/d
Perigee alt
455.2 km
Apogee alt
470.3 km
Semi-major
6,840.8 km
B*
3.0594e-4
RAAN
329.7945°
Arg perigee
119.7513°
Mean anomaly
240.4829°
Rev number
17,896

§ Raw data

SITRO-AIS 8 (ANOKHIN)1 57193U 23091AD  26262.91158321  .00010132  00000+0  30594-3 0  99982 57193  97.4961 329.7945 0011030 119.7513 240.4829 15.34399346178961

JSON: /api/v1/satellites/57193 · /tle

For live sub-satellite position, see the globe view (requires WebGL).

§ Visibility from observer

Set your observer location to see the next 7 days of passes ≥ 10°. The values pass through the URL so the page stays shareable.

No JS? Fill the form by hand. The geolocation button needs JavaScript.

§ Radio — SatNOGS DB

ModeDescriptionDownlinkUplink
GMSK USP Mode U - GMSK USP 2K4 TLM 401.230 MHz

1 transmitter · refreshed weekly from db.satnogs.org